Location: Zagreb
(45.8000°N, 16.0000°E)
Time: 09:30:27
(UTC+01:00)

Transit 2A Rocket - All Passes

Search period start: 23 January 2020 00:00
Search period end: 02 February 2020 00:00
Orbit: 593 x 910 km, 66.7° (Epoch: 22 January)

Date Brightness Start Highest point End Pass type
(mag) Time Alt. Az. Time Alt. Az. Time Alt. Az.
23 Jan - 04:53:37 10° SSE 04:57:07 25° ESE 05:00:37 10° ENE visible
23 Jan - 06:35:24 10° WSW 06:39:26 38° NW 06:43:32 10° NNE visible
23 Jan - 11:52:54 10° NNE 11:53:33 10° NNE 11:54:12 10° NE daylight
23 Jan - 13:32:48 10° NNW 13:37:20 41° NE 13:42:14 10° ESE daylight
23 Jan - 15:15:30 10° NW 15:19:48 31° WSW 15:24:25 10° S daylight
24 Jan - 04:12:44 10° SE 04:14:51 14° ESE 04:17:00 10° ENE visible
24 Jan - 05:52:31 10° SW 05:56:48 67° NW 06:01:09 10° NNE visible
24 Jan - 07:38:17 10° WNW 07:40:15 13° NNW 07:42:13 10° N daylight
24 Jan - 12:50:32 10° NNW 12:54:36 27° NE 12:58:56 10° ESE daylight
24 Jan - 14:32:39 10° NW 14:37:22 52° WSW 14:42:31 10° SSE daylight
25 Jan - 05:10:01 10° SSW 05:14:17 68° ESE 05:18:36 10° NE visible
25 Jan - 06:54:13 10° W 06:57:17 19° NW 07:00:24 10° N visible
25 Jan - 12:08:24 10° N 12:11:45 19° NE 12:15:16 10° E daylight
25 Jan - 13:50:02 10° NNW 13:54:53 88° SW 14:00:12 10° SSE daylight
25 Jan - 15:34:37 10° W 15:36:51 13° WSW 15:39:09 10° SW daylight
26 Jan - 04:27:55 10° S 04:31:52 36° ESE 04:35:50 10° NE visible
26 Jan - 06:10:43 10° WSW 06:14:27 28° NW 06:18:16 10° NNE visible
26 Jan - 11:26:34 10° N 11:28:47 13° NNE 11:31:05 10° ENE daylight
26 Jan - 13:07:33 10° NNW 13:12:18 57° NE 13:17:29 10° SE daylight
26 Jan - 14:50:45 10° WNW 14:54:34 22° WSW 14:58:38 10° SSW daylight
27 Jan - 03:46:24 10° SSE 03:49:33 20° ESE 03:52:43 10° ENE visible
27 Jan - 05:27:35 10° SW 05:31:44 46° NW 05:35:58 10° NNE visible
27 Jan - 07:15:06 10° NNW 07:15:28 10° NNW 07:15:50 10° NNW daylight
27 Jan - 12:25:12 10° NNW 12:29:38 36° NE 12:34:25 10° ESE daylight
27 Jan - 14:07:41 10° NW 14:12:13 37° WSW 14:17:06 10° S daylight
28 Jan - 03:06:19 10° ESE 03:07:20 11° ESE 03:08:21 10° E visible
28 Jan - 04:44:50 10° SW 04:49:08 82° WNW 04:53:31 10° NNE visible
28 Jan - 06:30:00 10° WNW 06:32:26 14° NW 06:34:54 10° N visible
28 Jan - 11:42:58 10° NNW 11:46:52 24° NE 11:51:00 10° E daylight
28 Jan - 13:24:56 10° NW 13:29:46 63° WSW 13:35:03 10° SSE daylight
29 Jan - 04:02:27 10° SSW 04:06:38 54° ESE 04:10:54 10° NE visible
29 Jan - 05:46:10 10° W 05:49:31 21° NW 05:52:56 10° N visible
29 Jan - 11:00:55 10° N 11:03:58 17° NE 11:07:10 10° ENE daylight
29 Jan - 12:42:21 10° NNW 12:47:14 79° ENE 12:52:35 10° SE daylight
29 Jan - 14:26:19 10° WNW 14:29:19 16° WSW 14:32:28 10° SW daylight
30 Jan - 03:20:32 10° S 03:24:17 29° ESE 03:28:02 10° NE visible
30 Jan - 05:02:48 10° WSW 05:06:43 33° NW 05:10:43 10° NNE visible
30 Jan - 10:19:15 10° N 10:20:58 12° NNE 10:22:45 10° NE daylight
30 Jan - 11:59:56 10° NNW 12:04:38 48° NE 12:09:45 10° SE daylight
30 Jan - 13:42:50 10° NW 13:47:01 27° WSW 13:51:28 10° SSW daylight
31 Jan - 02:39:18 10° SSE 02:42:00 16° ESE 02:44:42 10° ENE visible
31 Jan - 04:19:49 10° SW 04:24:02 56° NW 04:28:22 10° NNE visible
31 Jan - 06:06:07 10° NW 06:07:37 11° NNW 06:09:09 10° N visible
31 Jan - 11:17:37 10° NNW 11:21:56 31° NE 11:26:34 10° ESE daylight
31 Jan - 12:59:55 10° NW 13:04:37 45° WSW 13:09:44 10° S daylight
01 Feb - 03:37:11 10° SSW 03:41:28 81° ESE 03:45:52 10° NE visible
01 Feb - 05:21:49 10° WNW 05:24:38 17° NW 05:27:30 10° N visible
01 Feb - 10:35:26 10° N 10:39:07 21° NE 10:43:01 10° E daylight
01 Feb - 12:17:13 10° NW 12:22:09 76° WSW 12:27:32 10° SSE daylight
01 Feb - 14:02:41 10° W 14:04:01 11° WSW 14:05:22 10° WSW daylight
